SCP
0 0 0 0 0 0 0 0 0 0 0 0 0 0 0 0 0 0 0 0 0 0 0 0 0 0 0 0 0 0 0 0 0 0 0 0 0 0 0 0 0 0 0 0 0 0 0 0 0
0 0 0 0 0 0 0 0 0 0 0 0 0 0 0 0 0 0 0 0 0 0 0 0 0 0 0 0 0 0 0 0 0 0 0 0 0 0 0 0 0 0 0 0 0 0 0 0 0
0 0 0 0 0 0 0 0 0 0 0 0 0 0 0 0 0 0 0 0 0 0 0 0 0 0 0 0 0 0 0 0 0 0 0 0 0 0 0 0 0 0 0 0 0 0 0 0 0
0 0 0 0 0 0 0 0 0 0 0 0 0 0 0 0 0 0 0 0 0 0 0 0 0 0 0 0 0 0 0 0 0 0 0 0 0 0 0 0 0 0 0 0 0 0 0 0 0
0 0 0 0 0 0 0 0 0 0 0 0 0 0 0 0 0 0 0 0 0 0 0 0 0 0 0 0 0 0 0 0 0 0 0 0 0 0 0 0 0 0 0 0 0 0 0 0 0
0 0 0 0 0 0 0 0 0 0 0 0 0 0 0 0 0 0 0 0 0 0 0 0 0 0 0 0 0 0 0 0 0 0 0 0 0 0 0 0 0 0 0 0 0 0 0 0 0
0 0 0 0 0 0 0 0 0 0 0 0 0 0 0 0 0 0 0 0 0 0 0 0 0 0 0 0 0 0 0 0 0 0 0 0 0 0 0 0 0 0 0 0 0 0 0 0 0
0 0 0 0 0 0 0 0 0 0 0 0 0 0 0 0 0 0 0 0 0 0 0 0 0 0 0 0 0 0 0 0 0 0 0 0 0 0 0 0 0 0 0 0 0 0 0 0 0
0 0 0 0 0 0 0 0 0 0 0 0 0 0 0 0 0 0 0 0 0 0 0 0 0 0 0 0 0 0 0 0 0 0 0 0 0 0 0 0 0 0 0 0 0 0 0 0 0
0 0 0 0 0 0 0 0 0 0 0 0 0 0 0 0 0 0 0 0 0 0 0 0 0 0 0 0 0 0 0 0 0 0 0 0 0 0 0 0 0 0 0 0 0 0 0 0 0
0 0 0 0 0 0 0 0 0 0 0 0 0 0 0 0 0 0 0 0 0 0 0 0 0 0 0 0 0 0 0 0 0 0 0 0 0 0 0 0 0 0 0 0 0 0 0 0 0
0 0 0 0 0 0 0 0 0 0 0 0 0 0 0 0 0 0 0 0 0 0 0 0 0 0 0 0 0 0 0 0 0 0 0 0 0 0 0 0 0 0 0 0 0 0 0 0 0
0 0 0 0 0 0 0 0 0 0 0 0 0 0 0 0 0 0 0 0 0 0 0 0 0 0 0 0 0 0 0 0 0 0 0 0 0 0 0 0 0 0 0 0 0 0 0 0 0
0 0 0 0 0 0 0 0 0 0 0 0 0 0 0 0 0 0 0 0 0 0 0 0 0 0 0 0 0 0 0 0 0 0 0 0 0 0 0 0 0 0 0 0 0 0 0 0 0
0 0 0 0 0 0 0 0 0 0 0 0 0 0 0 0 0 0 0 0 0 0 0 0 0 0 0 0 0 0 0 0 0 0 0 0 0 0 0 0 0 0 0 0 0 0 0 0 0
0 0 0 0 0 0 0 0 0 0 0 0 0 0 0 0 0 0 0 0 0 0 0 0 0 0 0 0 0 0 0 0 0 0 0 0 0 0 0 0 0 0 0 0 0 0 0 0 0
0 0 0 0 0 0 0 0 0 0 0 0 0 0 0 0 0 0 0 0 0 0 0 0 0 0 0 0 0 0 0 0 0 0 0 0 0 0 0 0 0 0 0 0 0 0 0 0 0
0 0 0 0 0 0 0 0 0 0 0 0 0 0 0 0 0 0 0 0 0 0 0 0 0 0 0 0 0 0 0 0 0 0 0 0 0 0 0 0 0 0 0 0 0 0 0 0 0
0 0 0 0 0 0 0 0 0 0 0 0 0 0 0 0 0 0 0 0 0 0 0 0 0 0 0 0 0 0 0 0 0 0 0 0 0 0 0 0 0 0 0 0 0 0 0 0 0
0 0 0 0 0 0 0 0 0 0 0 0 0 0 0 0 0 0 0 0 0 0 0 0 0 0 0 0 0 0 0 0 0 0 0 0 0 0 0 0 0 0 0 0 0 0 0 0 0
0 0 0 0 0 0 0 0 0 0 0 0 0 0 0 0 0 0 0 0 0 0 0 0 0 0 0 0 0 0 0 0 0 0 0 0 0 0 0 0 0 0 0 0 0 0 0 0 0
0 0 0 0 0 0 0 0 0 0 0 0 0 0 0 0 0 0 0 0 0 0 0 0 0 0 0 0 0 0 0 0 0 0 0 0 0 0 0 0 0 0 0 0 0 0 0 0 0
0 0 0 0 0 0 0 0 0 0 0 0 0 0 0 0 0 0 0 0 0 0 0 0 0 0 0 0 0 0 0 0 0 0 0 0 0 0 0 0 0 0 0 0 0 0 0 0 0
0 0 0 0 0 0 0 0 0 0 0 0 0 0 0 0 0 0 0 0 0 0 0 0 0 0 0 0 0 0 0 0 0 0 0 0 0 0 0 0 0 0 0 0 0 0 0 0 0
0 0 0 0 0 0 0 0 0 0 0 0 0 0 0 0 0 0 0 0 0 0 0 0 0 0 0 0 0 0 0 0 0 0 0 0 0 0 0 0 0 0 0 0 0 0 0 0 0
0 0 0 0 0 0 0 0 0 0 0 0 0 0 0 0 0 0 0 0 0 0 0 0 0 0 0 0 0 0 0 0 0 0 0 0 0 0 0 0 0 0 0 0 0 0 0 0 0
0 0 0 0 0 0 0 0 0 0 0 0 0 0 0 0 0 0 0 0 0 0 0 0 0 0 0 0 0 0 0 0 0 0 0 0 0 0 0 0 0 0 0 0 0 0 0 0 0
0 0 0 0 0 0 0 0 0 0 0 0 0 0 0 0 0 0 0 0 0 0 0 0 0 0 0 0 0 0 0 0 0 0 0 0 0 0 0 0 0 0 0 0 0 0 0 0 0
0 0 0 0 0 0 0 0 0 0 0 0 0 0 0 0 0 0 0 0 0 0 0 0 0 0 0 0 0 0 0 0 0 0 0 0 0 0 0 0 0 0 0 0 0 0 0 0 0
0 0 0 0 0 0 0 0 0 0 0 0 0 0 0 0 0 0 0 0 0 0 0 0 0 0 0 0 0 0 0 0 0 0 0 0 0 0 0 0 0 0 0 0 0 0 0 0 0
Wind_Speed
7 7 5 2 2 3 2 1 4 3 4 6 6 7 12 12 8 7 3 6 10 12 12 11 10 9 8 7 7 6 5 5 4 3 2 2 2 2 2 2 3 3 3 3 3 4 3 3 3
7 6 4 2 3 2 1 3 5 5 3 3 4 9 11 11 11 9 5 6 10 12 10 11 10 9 8 7 6 5 5 4 3 2 1 1 1 2 2 3 4 4 4 4 4 4 4 4 4
8 5 3 3 4 1 2 4 6 6 4 4 5 9 9 7 9 6 6 8 10 11 11 11 10 9 8 7 6 5 4 4 2 1 1 1 2 3 3 4 5 5 5 5 5 5 5 5 4
4 3 4 4 6 0 5 5 5 5 4 4 5 9 9 8 7 9 8 8 10 11 12 10 10 9 7 6 5 4 3 3 2 1 2 2 3 4 4 5 5 6 6 6 6 5 5 5 5
3 3 5 4 4 3 6 5 4 4 4 6 8 10 9 11 12 11 8 8 8 9 10 10 10 9 7 6 5 4 3 2 2 2 3 4 4 5 5 6 6 7 7 6 6 5 5 6 5
2 3 4 3 0 4 4 3 3 5 6 6 7 9 8 10 10 9 8 6 7 8 9 10 10 9 8 7 5 3 3 2 3 3 4 5 5 6 6 6 7 7 7 6 6 6 5 5 5
3 4 5 4 1 2 3 2 3 4 5 4 4 7 9 9 9 7 7 6 5 6 7 7 8 9 9 8 6 4 2 1 2 3 4 5 7 8 8 7 7 7 7 6 6 6 6 6 6
3 4 7 3 1 1 3 3 3 4 5 4 2 6 9 10 9 7 7 5 4 4 4 5 5 6 7 7 7 6 4 3 4 5 6 7 8 10 10 9 7 7 7 7 7 7 7 7 7
4 4 5 3 1 2 3 3 3 3 4 4 6 10 13 13 10 7 5 5 4 4 3 3 3 4 3 4 7 6 7 6 6 6 8 7 5 5 6 7 7 7 8 8 8 9 9 9 8
5 4 4 2 2 2 2 2 3 3 5 4 7 12 13 11 10 8 6 5 5 3 3 3 2 2 2 2 3 1 1 2 2 1 1 3 3 2 2 3 7 8 9 9 9 10 10 8 4
7 7 4 2 3 1 1 2 2 1 3 5 8 11 11 9 8 7 5 5 4 4 3 2 2 2 2 2 2 1 0 0 1 2 3 2 2 2 1 1 3 5 7 5 5 7 5 4 4
9 7 5 2 3 1 1 1 1 1 2 4 7 10 10 9 7 6 5 5 5 4 3 3 3 3 3 3 2 1 0 1 1 2 4 2 1 2 2 1 1 1 1 2 2 2 4 4 4
10 7 4 1 1 2 2 2 1 2 3 5 8 8 8 8 6 6 5 5 6 5 4 3 3 3 3 2 1 1 2 2 1 1 2 2 1 2 2 2 1 2 1 1 1 2 3 3 3
6 6 4 3 4 3 3 4 5 4 6 7 7 8 9 7 6 6 6 4 5 5 4 4 3 3 3 2 2 2 2 0 1 2 3 3 2 1 2 2 2 2 2 2 2 2 2 2 2
5 5 5 6 6 4 3 6 7 5 6 7 7 7 7 7 6 5 5 5 4 5 5 5 2 2 3 3 3 2 2 2 2 2 3 4 3 2 2 2 3 2 2 3 2 3 2 2 2
6 6 6 6 7 5 4 4 3 4 5 6 6 6 6 6 6 6 6 5 5 5 5 5 3 3 3 2 2 2 2 3 2 2 3 5 5 4 2 2 3 3 2 2 2 1 2 2 1
5 6 7 5 7 6 6 4 5 6 6 6 6 7 8 8 7 6 6 5 4 4 5 5 4 2 2 2 1 2 2 2 1 2 2 4 5 5 3 2 2 3 2 2 3 2 1 2 2
5 5 5 4 4 6 7 5 5 7 8 6 5 6 8 8 8 7 6 5 4 4 4 5 4 2 3 2 2 2 2 2 1 2 2 3 3 4 3 2 3 3 2 2 3 3 2 2 2
2 3 4 3 4 7 7 6 7 9 9 8 7 8 8 8 9 9 8 6 4 4 3 4 3 3 3 2 1 1 1 2 2 2 2 3 3 3 3 3 3 2 2 2 3 2 3 2 2
4 6 4 1 3 5 7 7 6 8 8 7 6 5 5 6 8 9 8 7 4 4 4 3 3 3 4 3 1 0 1 1 0 1 2 3 3 3 4 3 2 3 2 2 3 2 2 2 2
6 4 2 2 6 8 7 7 6 6 7 7 5 2 2 5 7 10 8 7 5 5 4 3 3 4 4 2 1 2 1 1 1 1 1 2 2 2 2 3 3 3 2 1 2 1 1 2 2
4 2 3 4 6 5 5 4 3 6 6 7 6 5 4 5 6 8 8 7 6 6 5 3 3 3 4 2 2 1 1 1 1 1 1 2 2 2 1 3 3 2 1 1 2 1 1 1 1
2 2 5 6 6 7 7 6 1 6 6 7 6 5 5 6 6 8 8 7 6 6 5 3 4 3 4 2 2 1 1 1 1 1 1 2 1 1 1 1 3 2 1 1 1 1 1 1 1
2 5 8 8 6 7 5 4 0 3 4 5 6 7 6 6 6 7 8 6 6 6 5 3 3 4 3 1 2 2 1 1 2 2 1 2 1 1 1 2 2 2 1 1 1 2 1 1 1
6 5 3 2 3 3 2 2 1 5 5 3 4 5 7 7 7 7 8 7 6 7 5 4 4 4 3 2 2 1 2 0 1 1 1 2 2 1 1 2 2 1 2 2 1 2 1 1 1
6 5 2 3 3 2 2 2 5 7 5 4 3 4 6 7 6 7 8 7 7 7 6 5 4 4 3 2 1 0 1 0 0 1 1 2 1 1 1 2 1 1 1 2 1 1 2 1 1
3 3 4 4 7 6 2 2 7 7 6 5 4 5 5 6 7 7 8 8 8 7 6 5 5 4 4 2 2 1 0 1 1 1 1 1 2 1 2 2 2 1 1 1 1 1 1 1 1
6 6 3 3 4 4 3 2 3 6 5 5 5 6 6 6 7 8 8 8 7 7 6 6 5 4 4 3 2 2 1 1 0 1 2 2 3 2 2 2 2 1 1 1 1 1 1 1 1
7 6 5 4 4 4 3 2 3 4 3 2 3 4 5 6 6 7 7 7 7 7 7 6 6 5 4 4 3 2 2 1 1 1 1 2 2 2 1 1 1 2 2 1 1 0 1 1 1
4 6 5 4 4 4 4 1 3 4 3 2 2 3 5 6 6 7 7 7 7 7 7 7 6 6 5 3 2 2 2 3 1 1 1 2 2 1 1 1 1 2 2 2 1 1 1 1 1
Wind_Direction
200 207 208 215 241 234 250 171 101 59 54 42 37 56 68 57 55 89 128 101 107 110 114 106 98 94 90 88 86 84 82 76 67 53 38 24 358 343 335 311 296 298 296 298 311 318 321 327 337
212 198 215 233 249 258 161 103 94 86 81 75 61 68 76 69 78 96 107 104 106 106 106 99 96 90 87 85 83 84 84 80 72 50 7 357 325 306 306 300 292 288 291 289 288 294 302 306 314
228 219 239 239 255 266 118 100 105 95 69 56 72 67 58 68 80 98 118 116 104 102 101 101 98 91 85 82 79 74 75 70 61 32 343 327 301 291 288 288 287 285 281 281 281 283 287 291 298
211 221 247 249 271 6 98 105 114 116 103 75 77 81 71 63 89 112 119 113 105 106 106 109 106 100 92 85 78 69 64 56 39 348 304 285 276 273 276 276 276 279 278 278 278 277 278 281 281
221 242 251 256 273 82 89 101 117 111 100 77 78 90 90 88 104 115 117 111 112 111 115 121 120 117 110 102 90 76 57 35 3 325 303 291 279 271 264 262 263 266 271 272 273 273 266 268 272
238 251 263 272 356 77 96 112 117 101 90 93 101 107 102 113 113 118 120 122 119 116 119 127 136 135 130 120 107 89 59 22 354 331 302 287 275 269 262 254 252 255 257 260 265 269 266 260 263
249 270 268 282 115 114 118 111 99 97 97 82 80 105 118 122 120 126 120 111 109 116 127 140 151 153 148 137 130 119 103 333 301 293 286 278 271 263 255 247 246 251 252 254 260 263 262 260 257
237 281 291 302 130 115 106 114 98 86 89 81 78 102 127 133 135 132 129 129 128 122 126 135 149 144 150 154 155 161 179 215 243 254 262 267 268 259 249 239 230 240 249 250 252 254 255 251 249
259 257 283 314 88 117 133 134 105 102 109 98 83 92 123 134 140 142 144 143 134 116 115 116 113 122 141 158 152 182 194 214 236 244 243 257 263 253 232 218 206 223 241 246 246 248 249 246 243
215 248 278 323 49 89 136 136 139 164 128 110 105 109 125 144 152 158 163 152 135 129 108 90 94 101 103 65 114 182 166 175 231 304 252 247 281 296 297 183 208 223 236 241 242 246 248 242 233
221 244 272 317 58 15 162 157 171 174 139 141 136 135 141 155 159 161 158 139 129 117 95 88 85 92 86 88 73 39 346 113 339 359 338 322 332 329 307 204 209 224 230 232 234 234 235 231 226
240 260 280 346 64 319 309 176 171 149 95 110 119 131 148 167 166 164 158 142 132 115 108 80 44 37 56 63 34 254 87 62 21 18 351 342 349 327 328 329 328 275 247 216 226 222 225 231 230
238 252 258 272 201 245 262 248 213 158 141 133 133 146 164 167 161 159 155 147 139 130 126 97 72 34 38 67 314 15 55 49 11 39 329 344 0 337 336 324 331 312 310 284 255 248 238 233 246
232 244 238 242 229 223 227 236 216 196 171 158 162 170 177 165 165 168 159 157 145 134 126 105 74 53 33 36 24 33 39 36 20 28 339 349 352 341 332 324 330 321 320 302 281 270 248 226 230
243 252 243 223 221 204 214 244 224 198 170 174 183 182 167 161 171 174 156 152 138 132 125 107 107 73 49 27 12 19 11 29 31 21 344 346 350 345 357 352 336 330 324 323 317 310 312 271 236
223 235 242 224 203 183 206 249 172 176 182 196 192 174 161 166 183 170 149 145 130 123 112 112 96 70 72 55 5 10 19 35 18 8 4 358 352 355 6 348 327 329 332 335 316 309 316 307 297
214 228 231 217 198 193 214 249 172 182 200 212 199 186 174 178 186 158 136 131 119 115 114 117 99 77 74 68 28 33 25 29 7 24 26 3 351 346 358 341 328 330 340 333 318 341 333 316 310
217 227 235 218 188 218 234 235 207 196 205 214 209 202 186 182 174 148 133 124 114 111 115 111 116 113 85 75 34 39 22 358 21 32 30 9 338 342 351 329 334 347 349 329 321 319 314 294 286
274 265 248 228 205 235 246 243 209 197 198 198 209 209 195 177 157 142 139 130 135 134 120 107 117 109 95 72 29 25 11 347 16 13 30 358 343 348 338 332 332 338 324 315 320 323 321 312 301
258 255 255 339 279 259 254 254 225 201 195 195 210 207 187 161 144 137 141 140 153 137 122 118 109 96 94 94 20 71 31 321 22 10 22 350 359 1 342 342 330 320 317 324 319 321 319 311 322
249 257 302 290 267 253 255 251 231 186 182 176 185 180 178 153 154 152 152 145 148 137 130 122 111 110 104 120 72 24 11 317 349 1 30 356 356 358 335 324 317 314 318 314 305 315 316 296 308
251 254 254 269 284 288 264 273 242 166 168 167 173 185 178 157 154 147 148 148 152 140 126 131 118 111 108 101 79 358 334 340 353 11 15 340 360 359 328 316 311 305 312 327 314 325 307 284 297
223 247 272 263 267 280 273 275 210 154 170 169 170 178 168 157 149 143 145 144 144 129 123 124 115 103 97 89 124 263 340 354 354 349 359 334 329 312 320 310 300 305 306 297 292 309 299 284 274
245 252 253 248 255 263 262 282 301 140 135 144 157 164 160 150 140 139 137 135 134 124 127 133 128 114 113 159 203 186 116 358 329 324 343 320 305 306 350 328 323 332 333 318 305 283 273 251 260
234 255 276 257 235 246 200 254 115 90 88 106 147 152 151 145 147 147 144 147 140 137 144 156 148 136 143 209 239 160 130 272 304 327 330 315 320 335 343 343 327 334 323 309 290 285 263 241 235
226 249 279 309 296 313 242 205 113 109 104 104 112 126 139 147 151 150 149 149 147 151 159 167 155 156 164 209 233 106 128 171 304 314 311 306 310 308 314 310 313 327 318 312 305 272 259 235 240
266 245 246 276 289 291 268 127 125 132 137 142 148 151 161 158 153 153 152 155 156 162 166 167 164 171 168 188 198 176 97 108 325 303 303 303 299 314 342 338 342 342 347 343 340 317 332 339 287
275 301 296 283 306 302 314 344 108 137 140 151 165 172 172 161 161 159 156 161 162 163 164 166 172 175 165 187 199 168 194 173 230 299 332 323 317 335 332 347 342 359 21 11 20 337 324 312 239
215 238 255 273 276 298 319 7 64 100 109 152 165 161 162 161 162 157 156 162 160 159 164 170 177 178 170 186 187 177 162 217 229 236 291 292 297 312 324 340 342 12 18 18 58 301 335 310 301
273 279 282 286 301 301 297 337 103 112 124 157 167 159 152 154 156 155 158 161 164 169 174 178 179 174 164 174 182 178 189 203 220 223 260 282 302 311 324 5 35 34 18 16 23 14 324 299 326